| time (UTC) | temp C | wind direction | speed KPH | gust KPH | rain 1hr cm | rain 24hr cm | rain mn cm | humidity % | barometer mb |
| 20260506073037 | 22 | 237 | 6.4 | 11.3 | 0.00 | 0.00 | 0.00 | 40 | 1014.6 |
| 20260506072035 | 22 | 246 | 3.2 | 8.0 | 0.00 | 0.00 | 0.00 | 41 | 1014.7 |
| 20260506071053 | 22 | 249 | 4.8 | 11.3 | 0.00 | 0.00 | 0.00 | 44 | 1014.7 |
| 20260506062022 | 20 | 249 | 4.8 | 8.0 | 0.00 | 0.00 | 0.00 | 50 | 1014.8 |
| 20260506061020 | 18 | 224 | 1.6 | 8.0 | 0.00 | 0.00 | 0.00 | 54 | 1014.8 |
| 20260506051108 | 13 | 180 | 0.0 | 3.2 | 0.00 | 0.00 | 0.00 | 67 | 1014.8 |
| 20260506050105 | 13 | 204 | 1.6 | 4.8 | 0.00 | 0.00 | 0.00 | 70 | 1014.7 |
| 20260506045104 | 12 | 152 | 1.6 | 6.4 | 0.00 | 0.00 | 0.00 | 72 | 1014.7 |
| 20260506044121 | 12 | 158 | 1.6 | 6.4 | 0.00 | 0.00 | 0.00 | 72 | 1014.7 |
| 20260506043059 | 11 | 190 | 0.0 | 3.2 | 0.00 | 0.00 | 0.00 | 73 | 1014.5 |
| 20260506042117 | 11 | 195 | 1.6 | 3.2 | 0.00 | 0.00 | 0.00 | 74 | 1014.6 |
| 20260506041055 | 10 | 180 | 0.0 | 3.2 | 0.00 | 0.00 | 0.00 | 75 | 1014.6 |
| 20260506040053 | 10 | 225 | 0.0 | 3.2 | 0.00 | 0.00 | 0.00 | 76 | 1014.5 |
| 20260506035111 | 9 | 225 | 0.0 | 3.2 | 0.00 | 0.00 | 0.00 | 78 | 1014.3 |
| 20260506034049 | 8 | 0.0 | 1.6 | 0.00 | 0.00 | 0.00 | 78 | 1014.2 | |
| 20260506033047 | 8 | 0.0 | 0.0 | 0.00 | 0.00 | 0.00 | 77 | 1014.1 | |
| 20260506032045 | 8 | 0.0 | 0.0 | 0.00 | 0.00 | 0.00 | 76 | 1013.9 | |
| 20260506031043 | 8 | 0.0 | 0.0 | 0.00 | 0.00 | 0.00 | 75 | 1013.9 | |
| 20260506030140 | 8 | 0.0 | 0.0 | 0.00 | 0.00 | 0.00 | 75 | 1013.8 | |
| 20260506025058 | 8 | 0.0 | 0.0 | 0.00 | 0.00 | 0.00 | 74 | 1013.8 | |
| 20260506024036 | 9 | 0.0 | 0.0 | 0.00 | 0.00 | 0.00 | 75 | 1014.0 | |
| 20260506023034 | 9 | 225 | 0.0 | 3.2 | 0.00 | 0.00 | 0.00 | 76 | 1013.9 |
| 20260506022052 | 8 | 225 | 0.0 | 3.2 | 0.00 | 0.00 | 0.00 | 78 | 1013.8 |
| 20260506021050 | 8 | 0.0 | 1.6 | 0.00 | 0.00 | 0.00 | 78 | 1013.8 | |
| 20260506020028 | 8 | 0.0 | 0.0 | 0.00 | 0.00 | 0.00 | 77 | 1013.8 | |
| 20260506015025 | 8 | 0.0 | 0.0 | 0.00 | 0.00 | 0.00 | 76 | 1013.6 | |
| 20260506014023 | 8 | 0.0 | 0.0 | 0.00 | 0.00 | 0.00 | 76 | 1013.6 | |
| 20260506013042 | 8 | 0.0 | 0.0 | 0.00 | 0.00 | 0.00 | 74 | 1013.4 | |
| 20260506012019 | 8 | 0.0 | 0.0 | 0.00 | 0.00 | 0.00 | 74 | 1013.4 | |
| 20260506011017 | 8 | 0.0 | 0.0 | 0.00 | 0.00 | 0.00 | 73 | 1013.4 | |
| 20260506010015 | 8 | 0.0 | 0.0 | 0.00 | 0.00 | 0.00 | 72 | 1013.4 | |
| 20260506005113 | 9 | 0.0 | 0.0 | 0.00 | 0.00 | 0.00 | 72 | 1013.4 | |
| 20260506004111 | 9 | 0.0 | 0.0 | 0.00 | 0.00 | 0.00 | 71 | 1013.4 | |
| 20260506003129 | 9 | 0.0 | 0.0 | 0.00 | 0.00 | 0.00 | 70 | 1013.5 | |
| 20260506002107 | 10 | 0.0 | 0.0 | 0.00 | 0.00 | 0.00 | 69 | 1013.4 | |
| 20260506001104 | 10 | 0.0 | 0.0 | 0.00 | 0.00 | 0.00 | 68 | 1013.4 | |
| 20260505235100 | 10 | 0.0 | 0.0 | 0.00 | 0.00 | 0.00 | 64 | 1013.4 | |
| 20260505234058 | 11 | 0.0 | 0.0 | 0.00 | 0.00 | 0.00 | 62 | 1013.3 | |
| 20260505233056 | 11 | 0.0 | 0.0 | 0.00 | 0.00 | 0.00 | 61 | 1013.3 | |
| 20260505232054 | 12 | 0.0 | 0.0 | 0.00 | 0.00 | 0.00 | 57 | 1013.3 | |
| 20260505231052 | 13 | 0.0 | 0.0 | 0.00 | 0.00 | 0.00 | 53 | 1013.3 | |
| 20260505230050 | 13 | 0.0 | 0.0 | 0.00 | 0.00 | 0.00 | 52 | 1013.3 | |
| 20260505225048 | 13 | 0.0 | 0.0 | 0.00 | 0.00 | 0.00 | 51 | 1013.3 | |
| 20260505224046 | 13 | 242 | 0.0 | 4.8 | 0.00 | 0.00 | 0.00 | 53 | 1013.3 |
| 20260505223043 | 12 | 227 | 3.2 | 8.0 | 0.00 | 0.00 | 0.00 | 59 | 1013.1 |
| 20260505222042 | 11 | 225 | 0.0 | 3.2 | 0.00 | 0.00 | 0.00 | 64 | 1012.9 |
| 20260505221039 | 11 | 0.0 | 1.6 | 0.00 | 0.00 | 0.00 | 65 | 1012.8 | |
| 20260505220037 | 11 | 0.0 | 1.6 | 0.00 | 0.00 | 0.00 | 65 | 1012.8 | |
| 20260505215035 | 11 | 225 | 0.0 | 3.2 | 0.00 | 0.00 | 0.00 | 66 | 1012.9 |
| 20260505214213 | 11 | 0.0 | 1.6 | 0.00 | 0.00 | 0.00 | 66 | 1012.6 | |
| 20260505213031 | 11 | 0.0 | 1.6 | 0.00 | 0.00 | 0.00 | 65 | 1012.6 | |
| 20260505212028 | 11 | 0.0 | 0.0 | 0.00 | 0.00 | 0.00 | 65 | 1012.5 | |
| 20260505211026 | 11 | 0.0 | 0.0 | 0.00 | 0.00 | 0.00 | 65 | 1012.4 | |
| 20260505210024 | 11 | 0.0 | 0.0 | 0.00 | 0.00 | 0.00 | 64 | 1012.5 | |
| 20260505205022 | 12 | 0.0 | 0.0 | 0.00 | 0.00 | 0.00 | 63 | 1012.5 | |
| 20260505204020 | 12 | 0.0 | 0.0 | 0.00 | 0.00 | 0.00 | 63 | 1012.5 | |
| 20260505203038 | 12 | 0.0 | 0.0 | 0.00 | 0.00 | 0.00 | 59 | 1012.4 | |
| 20260505202016 | 12 | 0.0 | 0.0 | 0.00 | 0.00 | 0.00 | 59 | 1012.3 | |
| 20260505201114 | 12 | 0.0 | 0.0 | 0.00 | 0.00 | 0.00 | 58 | 1012.4 | |
| 20260505200112 | 12 | 0.0 | 0.0 | 0.00 | 0.00 | 0.00 | 59 | 1012.3 | |
| 20260505195110 | 13 | 0.0 | 0.0 | 0.00 | 0.00 | 0.00 | 59 | 1012.2 | |
| 20260505194108 | 13 | 0.0 | 0.0 | 0.00 | 0.00 | 0.00 | 56 | 1012.1 | |
| 20260505193106 | 13 | 0.0 | 0.0 | 0.00 | 0.00 | 0.00 | 55 | 1012.2 | |
| 20260505192104 | 14 | 0.0 | 0.0 | 0.00 | 0.00 | 0.00 | 54 | 1012.1 | |
| 20260505191101 | 14 | 0.0 | 0.0 | 0.00 | 0.00 | 0.00 | 52 | 1012.1 | |
| 20260505190100 | 15 | 0.0 | 0.0 | 0.00 | 0.00 | 0.00 | 51 | 1012.1 | |
| 20260505185058 | 15 | 0.0 | 0.0 | 0.00 | 0.00 | 0.00 | 50 | 1012.0 | |
| 20260505184055 | 16 | 0.0 | 0.0 | 0.00 | 0.00 | 0.00 | 47 | 1012.0 | |
| 20260505183053 | 17 | 0.0 | 0.0 | 0.00 | 0.00 | 0.00 | 44 | 1012.0 | |
| 20260505182051 | 17 | 0.0 | 0.0 | 0.00 | 0.00 | 0.00 | 41 | 1011.9 | |
| 20260505181049 | 18 | 225 | 0.0 | 3.2 | 0.00 | 0.00 | 0.00 | 39 | 1011.9 |
| 20260505180046 | 18 | 0.0 | 0.0 | 0.00 | 0.00 | 0.00 | 37 | 1011.8 | |
| 20260505175044 | 19 | 0.0 | 3.2 | 0.00 | 0.00 | 0.00 | 37 | 1011.7 | |
| 20260505174042 | 20 | 0.0 | 0.0 | 0.00 | 0.00 | 0.00 | 34 | 1011.9 | |
| 20260505173041 | 21 | 0.0 | 0.0 | 0.00 | 0.00 | 0.00 | 32 | 1012.0 | |
| 20260505172038 | 22 | 135 | 0.0 | 3.2 | 0.00 | 0.00 | 0.00 | 31 | 1011.8 |
| 20260505171056 | 23 | 180 | 0.0 | 3.2 | 0.00 | 0.00 | 0.00 | 26 | 1011.8 |
| 20260505170034 | 23 | 225 | 0.0 | 3.2 | 0.00 | 0.00 | 0.00 | 25 | 1011.8 |
| 20260505165032 | 24 | 225 | 0.0 | 3.2 | 0.00 | 0.00 | 0.00 | 24 | 1011.8 |
| 20260505164030 | 25 | 225 | 0.0 | 3.2 | 0.00 | 0.00 | 0.00 | 22 | 1011.9 |
| 20260505163028 | 25 | 182 | 3.2 | 6.4 | 0.00 | 0.00 | 0.00 | 22 | 1012.1 |
| 20260505162025 | 26 | 162 | 3.2 | 9.7 | 0.00 | 0.00 | 0.00 | 22 | 1011.9 |
| 20260505161104 | 26 | 225 | 3.2 | 4.8 | 0.00 | 0.00 | 0.00 | 22 | 1012.1 |
| 20260505153015 | 26 | 192 | 3.2 | 8.0 | 0.00 | 0.00 | 0.00 | 20 | 1012.4 |
| 20260505152113 | 27 | 207 | 3.2 | 6.4 | 0.00 | 0.00 | 0.00 | 20 | 1012.4 |
| 20260505151111 | 27 | 233 | 1.6 | 4.8 | 0.00 | 0.00 | 0.00 | 20 | 1012.5 |
| 20260505150109 | 27 | 228 | 4.8 | 8.0 | 0.00 | 0.00 | 0.00 | 14 | 1012.5 |
| 20260505124039 | 30 | 198 | 6.4 | 19.3 | 0.00 | 0.00 | 0.00 | 14 | 1014.0 |
| 20260505123037 | 30 | 243 | 8.0 | 12.9 | 0.00 | 0.00 | 0.00 | 14 | 1014.0 |
| 20260505122035 | 30 | 167 | 6.4 | 9.7 | 0.00 | 0.00 | 0.00 | 14 | 1014.2 |
| 20260505121033 | 30 | 209 | 6.4 | 12.9 | 0.00 | 0.00 | 0.00 | 13 | 1014.3 |
| 20260505120031 | 30 | 176 | 4.8 | 9.7 | 0.00 | 0.00 | 0.00 | 13 | 1014.4 |
| 20260505115029 | 29 | 214 | 6.4 | 11.3 | 0.00 | 0.00 | 0.00 | 13 | 1014.5 |
| 20260505114026 | 29 | 182 | 8.0 | 17.7 | 0.00 | 0.00 | 0.00 | 14 | 1014.6 |
| 20260505113025 | 29 | 187 | 4.8 | 11.3 | 0.00 | 0.00 | 0.00 | 13 | 1014.8 |
| 20260505112022 | 29 | 258 | 6.4 | 12.9 | 0.00 | 0.00 | 0.00 | 13 | 1014.9 |
| 20260505111021 | 29 | 170 | 6.4 | 12.9 | 0.00 | 0.00 | 0.00 | 13 | 1015.0 |
| 20260505102150 | 28 | 185 | 8.0 | 17.7 | 0.00 | 0.00 | 0.00 | 18 | 1015.5 |
| 20260505101128 | 28 | 234 | 3.2 | 11.3 | 0.00 | 0.00 | 0.00 | 18 | 1015.7 |
| 20260505100126 | 28 | 163 | 4.8 | 8.0 | 0.00 | 0.00 | 0.00 | 20 | 1015.8 |
| 20260505095104 | 28 | 177 | 3.2 | 6.4 | 0.00 | 0.00 | 0.00 | 20 | 1015.9 |
| 20260505094121 | 27 | 196 | 4.8 | 8.0 | 0.00 | 0.00 | 0.00 | 20 | 1015.9 |
| 20260505093059 | 27 | 187 | 3.2 | 6.4 | 0.00 | 0.00 | 0.00 | 20 | 1016.1 |
| 20260505092138 | 27 | 322 | 6.4 | 11.3 | 0.00 | 0.00 | 0.00 | 20 | 1016.1 |
| 20260505091055 | 27 | 227 | 6.4 | 12.9 | 0.00 | 0.00 | 0.00 | 20 | 1016.2 |
| 20260505090113 | 27 | 126 | 4.8 | 9.7 | 0.00 | 0.00 | 0.00 | 20 | 1016.3 |
| 20260505085051 | 27 | 175 | 4.8 | 9.7 | 0.00 | 0.00 | 0.00 | 20 | 1016.3 |
| 20260505084049 | 27 | 236 | 3.2 | 6.4 | 0.00 | 0.00 | 0.00 | 23 | 1016.5 |
| 20260505083107 | 26 | 245 | 3.2 | 6.4 | 0.00 | 0.00 | 0.00 | 23 | 1016.6 |
| 20260505082105 | 26 | 201 | 3.2 | 6.4 | 0.00 | 0.00 | 0.00 | 24 | 1016.7 |
| 20260505081042 | 26 | 140 | 4.8 | 9.7 | 0.00 | 0.00 | 0.00 | 25 | 1016.6 |
| 20260505080041 | 26 | 126 | 3.2 | 9.7 | 0.00 | 0.00 | 0.00 | 27 | 1016.7 |
| 20260505075038 | 26 | 121 | 1.6 | 4.8 | 0.00 | 0.00 | 0.00 | 29 | 1016.7 |